Location: Newark
(43.4306°N, 0.3089°E)
Time: 08:34:42
(UTC+00:00)

Transit 2A Rocket - Pass Details

Date: 28 August 2019
Orbit: 592 x 911 km, 66.7° (Epoch: 23 September)

Event Time Altitude Azimuth Distance (km) Brightness Sun altitude
Rises 00:46:04 0° 340° (NNW) 3,048 8.8 -35.7°
Reaches altitude 10° 00:49:55 10° 11° (N) 2,057 8.0 -35.5°
Maximum altitude 00:51:48 12° 35° (NE) 1,879 7.7 -35.4°
Drops below altitude 10° 00:53:37 10° 59° (ENE) 1,997 7.6 -35.3°
Enters shadow 00:55:01 - 74° (ENE) 2,256 7.8 -35.3°
